#timestamp,LO_Frequency,Hit,StdDev 
1700121615.4,286047002.4,N
1700121635.2,286046998.5,N
1700121655.1,286046998.6,N
1700121656.0,286046998.6,N
1700121675.8,286047000.7,N
1700121695.7,286047002.4,N
1700121715.5,286047004.4,N
1700121735.3,286047003.0,N
1700121755.2,286047005.4,N
1700121775.9,286047003.7,N
1700121795.7,286047003.5,N
1700121815.6,286047001.4,N
1700121835.4,286047001.6,N
1700121855.3,286047002.6,N
1700121875.1,286047001.0,N
1700121876.0,286047001.0,N
1700121895.8,286046998.4,N
1700121915.7,286046999.1,N
1700121935.5,286046999.2,N
1700121955.4,286046998.8,N
1700121975.2,286046999.4,N
1700121995.0,286046999.2,N
1700121995.9,286046999.2,N
1700122015.8,286046999.2,N
1700122035.6,286046996.9,N
1700122055.4,286046998.7,N
1700122075.3,286047000.7,N
1700122095.1,286047000.5,N
1700122115.9,286047000.8,N
1700122135.7,286047002.6,N
1700122155.5,286047002.2,N
1700122175.4,286047002.2,N
1700122195.2,286047001.5,N
1700122215.1,286047002.0,N
1700122216.0,286047002.0,N
1700122235.8,286047002.7,N
1700122255.6,286047002.3,N
1700122275.5,286047002.6,N
1700122295.3,286047002.8,N
1700122315.1,286046999.8,N
1700122335.9,286047001.4,N
1700122355.7,286047001.5,N
1700122375.6,286047001.9,N
1700122395.4,286047002.2,N
1700122415.2,286047002.3,N
1700122435.1,286047002.1,N
1700122436.0,286047002.1,N
1700122455.8,286047011.9,Y
1700122475.6,286047000.2,P
1700122495.5,286046998.3,P
1700122515.3,286046998.4,N
1700122535.2,286046999.1,N
1700122555.9,286046998.2,N
1700122575.7,286047001.1,N
1700122595.6,286047000.4,N
1700122615.4,286046999.7,N
1700122635.2,286047000.4,N
1700122655.1,286046999.7,N
1700122656.0,286046999.7,N
1700122675.8,286047002.3,N
1700122695.7,286047000.4,N
1700122715.5,286047002.7,N
1700122735.3,286047000.2,N
1700122755.2,286047002.2,N
1700122775.0,286047001.3,N
1700122775.9,286047001.3,N
1700122795.8,286047004.3,Y
1700122815.6,286047002.8,P
1700122835.4,286047002.2,N
1700122855.3,286047000.0,N
1700122875.1,286047001.0,N
1700122895.8,286046998.7,N
1700122915.7,286046999.9,N
1700122935.5,286047002.4,N
1700122955.4,286047000.2,N
1700122975.2,286047000.0,N
1700122995.0,286047002.6,N
1700122995.9,286047002.6,N
1700123015.8,286047001.5,N
1700123035.6,286047002.3,N
1700123055.5,286047002.6,N
1700123075.3,286047002.7,N
1700123095.1,286047000.3,N
1700123115.9,286047002.7,N
1700123135.7,286047000.0,N
1700123155.5,286046999.8,N
1700123175.4,286047000.6,N
1700123195.2,286047002.7,N
1700123215.0,286046999.7,N
1700123216.0,286046999.7,N
1700123235.8,286046999.8,N
1700123255.6,286047000.3,N
1700123275.5,286047000.0,N
1700123295.3,286047000.3,N
1700123315.1,286047002.7,N
1700123335.9,286047000.0,N
1700123355.7,286047002.8,N
1700123375.6,286047000.5,N
1700123395.4,286047000.6,N
1700123415.2,286047000.5,N
1700123435.1,286047002.4,N
1700123436.0,286047002.4,N
1700123455.8,286047002.1,N
1700123475.6,286047000.6,N
1700123495.5,286047002.5,N
1700123515.3,286047002.5,N
1700123535.2,286047001.9,N
1700123555.9,286047001.9,N
1700123575.7,286047002.6,N
1700123595.6,286047000.2,N
1700123615.4,286046999.7,N
1700123635.2,286047002.5,N
1700123655.1,286047002.6,N
1700123656.0,286047002.6,N
1700123675.8,286047000.2,N
1700123695.7,286047000.0,N
1700123715.5,286047000.2,N
1700123735.3,286047000.0,N
1700123755.2,286047000.4,N
1700123775.0,286047000.5,N
1700123775.9,286047000.5,N
1700123795.8,286047002.6,N
1700123815.6,286047002.1,N
1700123835.4,286046999.7,N
1700123855.3,286047000.2,N
1700123875.1,286047000.5,N
1700123895.8,286047001.2,N
1700123915.7,286046999.4,N
1700123935.5,286046996.5,Y
1700123955.4,286046998.0,P
1700123975.2,286046994.9,P
1700123995.0,286046997.3,N
1700123995.9,286046997.3,N
1700124015.8,286046997.8,N
1700124035.6,286046997.7,N
1700124055.5,286046997.5,N
1700124075.3,286046995.0,Y
1700124095.1,286046999.5,P
1700124115.9,286046998.8,N
1700124135.7,286046999.5,N
1700124155.6,286046996.6,Y
1700124175.4,286046999.0,P
1700124195.2,286046999.0,P
1700124215.1,286046996.6,P
1700124216.0,286046996.6,Y
1700124235.8,286046999.3,P
1700124255.7,286047000.6,N
1700124275.5,286046999.4,N
1700124295.3,286046996.6,Y
1700124315.2,286046999.6,P
1700124335.0,286046998.2,P
1700124335.9,286046998.2,N
1700124355.7,286047000.3,N
1700124375.6,286046998.6,N
1700124395.4,286046998.3,N
1700124415.3,286046998.4,N
1700124435.1,286047000.8,N
1700124436.0,286047000.8,N
1700124455.8,286046998.1,N
1700124475.7,286046999.0,N
1700124495.5,286046999.0,N
1700124515.3,286046998.9,N
1700124535.2,286046996.5,Y
1700124555.0,286046998.3,P
1700124555.9,286046998.3,P
1700124575.8,286046998.1,P
1700124595.6,286046998.7,Y
1700124615.4,286046998.5,P
1700124665.3,286047001.0,E
1700124675.2,286046998.5,N
1700124695.1,286046998.4,P
1700124696.0,286046998.4,P
1700124715.8,286046998.5,Y
1700124735.6,286046998.6,P
1700124755.5,286046999.6,P
1700124775.3,286046999.1,N
1700124795.2,286046997.1,Y
1700124815.9,286046999.5,P
1700124835.7,286047001.2,P
1700124855.6,286046999.4,N
1700124875.4,286046999.2,N
1700124895.2,286046999.3,N
1700124915.1,286046999.5,N
1700124916.0,286046999.5,N
1700124935.8,286046996.7,Y
1700124955.7,286046996.8,P
1700124975.5,286046997.4,N
1700124995.3,286046995.0,P
1700125015.2,286046997.7,N
1700125035.0,286046996.8,N
1700125035.9,286046996.8,N
1700125055.8,286046997.2,N
1700125075.6,286046999.4,N
1700125095.4,286046996.7,N
1700125115.3,286046998.9,N
1700125135.1,286046999.3,N
1700125155.9,286046999.0,N
1700125175.7,286046999.4,N
1700125195.5,286046999.1,N
